Printer-friendly version

IAU Minor Planet Center

Minor Planet Center

MPEC 2004-M33 : 2004 MU2

The following Minor Planet Electronic Circular may be linked-to from your own Web pages, but must not otherwise be redistributed electronically.


Read MPEC 2004-M32 Read MPEC 2004-M34


M.P.E.C. 2004-M33                                Issued 2004 June 21, 18:57 UT

     The Minor Planet Electronic Circulars contain information on unusual
         minor planets and routine data on comets.  They are published
   on behalf of Commission 20 of the International Astronomical Union by the
          Minor Planet Center, Smithsonian Astrophysical Observatory,
                          Cambridge, MA 02138, U.S.A.

         Supported in part by the Steven and Michele Kirsch Foundation
             Prepared using the Tamkin Foundation Computer Network

                              MPC@CFA.HARVARD.EDU
          URL http://cfa-www.harvard.edu/iau/mpc.html  ISSN 1523-6714

                                   2004 MU2

Observations:
     K04M02U* C2004 06 16.37607 22 48 10.36 +00 06 18.5          19.4   EM033704
     K04M02U  C2004 06 16.38620 22 48 11.58 +00 06 31.0          19.9   EM033704
     K04M02U  C2004 06 16.39626 22 48 12.65 +00 06 41.1          19.7   EM033704
     K04M02U  C2004 06 16.41638 22 48 14.77 +00 07 05.3          20.0   EM033704
     K04M02U  C2004 06 20.38866 22 55 27.77 +01 25 48.0          19.6   EM033704
     K04M02U  C2004 06 20.39842 22 55 28.71 +01 25 59.8          20.3   EM033704
     K04M02U  C2004 06 20.41795 22 55 30.83 +01 26 23.9          20.2   EM033704
     K04M02U ! 2004 06 21.13940 22 56 49.17 +01 40 53.3          19.6 R EM033950
     K04M02U ! 2004 06 21.14182 22 56 49.45 +01 40 56.2          19.6 R EM033950
     K04M02U ! 2004 06 21.14425 22 56 49.68 +01 40 59.2          19.5 R EM033950
     K04M02U  C2004 06 21.35231 22 57 12.32 +01 45 10.1          19.3 R EM033854
     K04M02U  C2004 06 21.35775 22 57 12.86 +01 45 17.1          19.1 R EM033854
     K04M02U  C2004 06 21.36321 22 57 13.43 +01 45 23.7          19.0 R EM033854
     K04M02U  C2004 06 21.36379 22 57 13.52 +01 45 25.2          19.5   EM033704
     K04M02U  C2004 06 21.36688 22 57 13.89 +01 45 28.4          19.4   EM033704
     K04M02U  C2004 06 21.37675 22 57 14.83 +01 45 39.4          19.7   EM033704
     K04M02U  C2004 06 21.38319 22 57 15.54 +01 45 48.2          20.2   EM033704
     K04M02U  C2004 06 21.38661 22 57 15.95 +01 45 51.7          19.9   EM033704
     K04M02U  C2004 06 21.39664 22 57 16.98 +01 46 03.4          19.9   EM033704
     K04M02U  C2004 06 21.40228 22 57 17.60 +01 46 10.9          19.9   EM033704
     K04M02U  C2004 06 21.40659 22 57 18.02 +01 46 16.0          19.8   EM033704

Observer details:
704 Lincoln Laboratory ETS, New Mexico.  Observers M. Blythe, F. Shelly,
    M. Bezpalko, R. Huber, L. Manguso, D. Torres, R. Kracke, M. McCleary,
    H. Stange, A. Milner.  Measurers J. Stuart, R. Sayer, J. Evans, J. Kommers.
    1.0-m f/2.15 reflector + CCD.
854 Sabino Canyon Observatory, Tucson.  Observer J. E. McGaha.  0.356-m f/10.0
    Schmidt-Cassegrain + CCD.
950 La Palma.  Observers T. Grav, K. Aksnes, J. Naranen.  2.5-m Nordic
    Optical Telescope + CCD.

Orbital elements:
2004 MU2
Epoch 2004 June 4.0 TT = JDT 2453160.5                  MPC
M 342.07597              (2000.0)            P               Q
n   0.17760107     Peri.   91.69217     +0.98980362     -0.03009047
a   3.1345293      Node   270.04863     -0.02749230     +0.91869421
e   0.5224515      Incl.    8.00295     +0.13976037     +0.39382168
P   5.55           H   16.7           G   0.15
From 21 observations 2004 June 16-21.

Ephemeris:
2004 MU2                 a,e,i = 3.13, 0.52, 8                   q = 1.4969
Date    TT    R. A. (2000) Decl.     Delta      r     Elong.  Phase     V
2004 06 14    22 43.82   -00 39.8    1.240    1.746   101.0    34.8    19.8
2004 06 24    23 01.96   +02 39.0    1.125    1.699   104.9    35.3    19.6
2004 07 04    23 19.70   +06 08.6    1.020    1.656   108.8    35.5    19.3
2004 07 14    23 36.92   +09 46.7    0.924    1.617   112.7    35.4    19.0
2004 07 24    23 53.38   +13 29.0    0.840    1.582   116.7    35.0    18.8
2004 08 03    00 08.81   +17 09.8    0.766    1.553   120.8    34.2    18.5
2004 08 13    00 22.82   +20 41.8    0.703    1.529   125.1    32.8    18.2
2004 08 23    00 34.87   +23 54.7    0.650    1.512   129.8    30.9    18.0
2004 09 02    00 44.51   +26 37.4    0.607    1.501   135.0    28.4    17.8
2004 09 12    00 51.34   +28 38.0    0.575    1.497   140.7    25.2    17.5
2004 09 22    00 55.31   +29 45.1    0.555    1.500   146.9    21.4    17.3
2004 10 02    00 57.12   +29 53.2    0.547    1.509   153.1    17.4    17.2
2004 10 12    00 57.87   +29 04.2    0.553    1.526   158.2    14.1    17.1
2004 10 22    00 59.07   +27 30.3    0.575    1.548   160.0    12.7    17.2
2004 11 01    01 02.01   +25 32.4    0.613    1.576   157.4    14.0    17.4
2004 11 11    01 07.35   +23 31.3    0.669    1.610   151.7    17.0    17.8
2004 11 21    01 15.28   +21 43.9    0.741    1.648   144.6    20.3    18.1
2004 12 01    01 25.60   +20 19.9    0.829    1.691   137.2    23.3    18.5
2004 12 11    01 37.88   +19 21.6    0.932    1.737   130.0    25.7    18.9
2004 12 21    01 51.79   +18 47.8    1.049    1.786   123.0    27.5    19.3
2004 12 31    02 06.94   +18 34.7    1.178    1.838   116.2    28.7    19.6
2005 01 10    02 23.05   +18 37.7    1.318    1.892   109.7    29.3    20.0
2005 01 20    02 39.91   +18 52.6    1.467    1.948   103.4    29.4    20.3
2005 01 30    02 57.33   +19 15.3    1.624    2.004    97.3    29.2    20.5
2005 02 09    03 15.18   +19 42.4    1.787    2.062    91.4    28.6    20.8
2005 02 19    03 33.37   +20 11.2    1.955    2.121    85.5    27.7    21.0
2005 03 01    03 51.78   +20 39.4    2.125    2.180    79.8    26.6    21.2
2005 03 11    04 10.34   +21 05.0    2.297    2.239    74.1    25.3    21.4
2005 03 21    04 28.98   +21 26.7    2.469    2.299    68.5    23.8    21.6
2005 03 31    04 47.63   +21 43.3    2.639    2.358    62.9    22.2    21.7

Kyle E. Smalley              (C) Copyright 2004 MPC           M.P.E.C. 2004-M33

Read MPEC 2004-M32 Read MPEC 2004-M34


Our Web policy. Index to the CBAT/MPC/ICQ pages.


Valid HTML 4.01!